DLH8CT EGBB-EDDF

Flight info

Callsign DLH8CT
Flight time N/A
Altitude 37000
Route UNGAP P155 SIVDA P137 REDFA DCT TACHA DCT NOLRU DCT DIXAT DIXAT1A
Aircraft A320/M-SDE2E3FGIJ1LORWXYZ/HB1

Departure

Time 2026-05-04 07:59
Airport Birmingham Airport (EGBB)

Arrival

Time N/A
Airport Frankfurt Main Airport (EDDF)
Time Latitude Longitude Altitude Speed Heading
2026-05-04 07:33 52.45294 -1.73800 324 ft 0 kts 146°
2026-05-04 07:40 52.45295 -1.73800 296 ft 0 kts 146°
2026-05-04 07:50 52.45302 -1.73808 322 ft 3 kts 146°
2026-05-04 07:51 52.45318 -1.73826 323 ft 2 kts 146°
2026-05-04 07:51 52.45336 -1.73844 322 ft 3 kts 162°
2026-05-04 07:51 52.45357 -1.73848 323 ft 3 kts 196°
2026-05-04 07:51 52.45373 -1.73833 322 ft 1 kts 236°
2026-05-04 07:52 52.45364 -1.73855 323 ft 3 kts 236°
2026-05-04 07:52 52.45362 -1.73860 323 ft 0 kts 236°
2026-05-04 07:55 52.45356 -1.73874 323 ft 4 kts 236°
2026-05-04 07:55 52.45334 -1.73926 323 ft 6 kts 236°
2026-05-04 07:55 52.45295 -1.73972 323 ft 9 kts 186°
2026-05-04 07:55 52.45223 -1.73912 322 ft 13 kts 147°
2026-05-04 07:56 52.45153 -1.73833 323 ft 12 kts 145°
2026-05-04 07:56 52.45088 -1.73770 324 ft 10 kts 157°
2026-05-04 07:56 52.45023 -1.73731 324 ft 9 kts 153°
2026-05-04 07:56 52.44969 -1.73671 324 ft 11 kts 144°
2026-05-04 07:57 52.44891 -1.73652 324 ft 14 kts 198°
2026-05-04 07:57 52.44793 -1.73701 322 ft 16 kts 196°
2026-05-04 07:57 52.44677 -1.73697 324 ft 19 kts 142°
2026-05-04 07:57 52.44558 -1.73559 324 ft 22 kts 146°
2026-05-04 07:58 52.44429 -1.73418 324 ft 20 kts 153°
2026-05-04 07:58 52.44340 -1.73504 324 ft 14 kts 237°
2026-05-04 07:58 52.44331 -1.73631 324 ft 8 kts 314°
2026-05-04 07:58 52.44341 -1.73641 324 ft 0 kts 326°
2026-05-04 07:59 52.44478 -1.73792 324 ft 63 kts 326°
2026-05-04 07:59 52.45036 -1.74413 329 ft 128 kts 326°
2026-05-04 07:59 52.45914 -1.75403 481 ft 166 kts 328°
2026-05-04 07:59 52.46875 -1.76489 1236 ft 168 kts 328°
2026-05-04 08:00 52.47843 -1.77583 2019 ft 172 kts 329°
2026-05-04 08:00 52.48894 -1.78750 2478 ft 193 kts 329°
2026-05-04 08:00 52.50092 -1.79992 2893 ft 212 kts 339°
2026-05-04 08:02 52.52393 -1.66357 6046 ft 257 kts 131°
2026-05-04 08:02 52.51089 -1.64168 6033 ft 275 kts 136°
2026-05-04 08:02 52.49720 -1.61960 6033 ft 276 kts 136°
2026-05-04 08:03 52.48352 -1.59755 6034 ft 276 kts 136°
2026-05-04 08:03 52.46938 -1.57473 6537 ft 285 kts 136°
2026-05-04 08:03 52.45559 -1.55236 7627 ft 283 kts 136°
2026-05-04 08:03 52.44136 -1.52922 8611 ft 286 kts 136°
2026-05-04 08:04 52.42718 -1.50619 9606 ft 288 kts 136°
2026-05-04 08:04 52.41302 -1.48315 10386 ft 298 kts 136°
2026-05-04 08:04 52.39773 -1.45836 10751 ft 320 kts 136°
2026-05-04 08:04 52.38193 -1.43187 11412 ft 329 kts 131°
2026-05-04 08:05 52.36913 -1.40036 12209 ft 336 kts 117°
2026-05-04 08:05 52.36102 -1.36427 13014 ft 342 kts 104°
2026-05-04 08:05 52.35830 -1.32534 13823 ft 348 kts 91°
2026-05-04 08:05 52.35850 -1.28553 14561 ft 352 kts 90°
2026-05-04 08:06 52.35870 -1.24525 15282 ft 355 kts 90°
2026-05-04 08:06 52.35889 -1.20464 15993 ft 359 kts 91°
2026-05-04 08:06 52.35902 -1.16358 16699 ft 363 kts 91°
2026-05-04 08:06 52.35912 -1.12203 17399 ft 367 kts 91°
2026-05-04 08:08 52.35929 -0.81885 21688 ft 394 kts 92°
2026-05-04 08:08 52.35924 -0.77376 22282 ft 398 kts 92°
2026-05-04 08:10 52.35841 -0.40032 26376 ft 422 kts 92°
2026-05-04 08:11 52.35820 -0.35213 26830 ft 424 kts 92°
2026-05-04 08:11 52.35768 -0.25507 27687 ft 430 kts 92°
2026-05-04 08:11 52.35742 -0.20601 28111 ft 432 kts 92°
2026-05-04 08:12 52.35715 -0.15671 28525 ft 435 kts 92°
2026-05-04 08:12 52.35688 -0.10708 28936 ft 437 kts 92°
2026-05-04 08:12 52.35655 -0.05719 29330 ft 440 kts 92°
2026-05-04 08:12 52.35620 -0.00698 29724 ft 443 kts 93°
2026-05-04 08:13 52.35474 0.04353 29964 ft 446 kts 100°
2026-05-04 08:13 52.35044 0.09388 30247 ft 449 kts 101°
2026-05-04 08:13 52.34595 0.14466 30556 ft 452 kts 101°
2026-05-04 08:13 52.34139 0.19558 30868 ft 453 kts 101°
2026-05-04 08:14 52.33677 0.24668 31186 ft 455 kts 101°
2026-05-04 08:14 52.33213 0.29799 31478 ft 457 kts 101°
2026-05-04 08:14 52.32751 0.34931 31817 ft 457 kts 101°
2026-05-04 08:16 52.29492 0.70605 34557 ft 451 kts 101°
2026-05-04 08:16 52.29019 0.75673 34871 ft 451 kts 101°
2026-05-04 08:16 52.28545 0.80728 35173 ft 450 kts 101°
2026-05-04 08:17 52.28069 0.85785 35462 ft 450 kts 101°
2026-05-04 08:17 52.27591 0.90822 35738 ft 450 kts 101°
2026-05-04 08:17 52.27107 0.95869 36014 ft 450 kts 101°
2026-05-04 08:17 52.26622 1.00911 36272 ft 450 kts 101°
2026-05-04 08:19 52.23198 1.36035 37023 ft 444 kts 101°
2026-05-04 08:19 52.22702 1.41005 37021 ft 444 kts 101°
2026-05-04 08:20 52.21702 1.50954 37014 ft 445 kts 101°
2026-05-04 08:20 52.20696 1.60915 37014 ft 446 kts 101°
2026-05-04 08:21 52.19692 1.70890 37016 ft 446 kts 101°
2026-05-04 08:21 52.18674 1.80859 37012 ft 446 kts 101°
2026-05-04 08:22 52.17651 1.90681 37014 ft 446 kts 102°